Flag for Luxembourg Weather past 2 weeks in Luxembourg, Luxembourg

45 °F

Light rain. Partly sunny.

Feels Like: 45 °F
Forecast: 38 / 43 °F
Wind: 1 mph from North

Location: Luxembourg Airport

Current Time: Oct 13, 2015 at 4:35:27 PM

Latest Report: Oct 13, 2015 at 3:50 PM

Visibility: 3 mi

Pressure: 29.95 "Hg

Humidity: 87%

Dew point: 41 °F

Location of LuxembourgLocation

Historic Weather in Luxembourg — Graph


Luxembourg temperature yesterday

Maximum temperature yesterday: 54 °F (at 2:50 PM)
Minimum temperature yesterday: 37 °F (at 5:50 AM)
Average temperature yesterday: 44 °F

Past Weeks' High & Low Weather Summary

High64 °F (Oct 2, 3:20 PM)100% (Oct 4, 6:20 AM)30.51 "Hg (Oct 4, 6:20 AM)
Low34 °F (Oct 13, 7:20 AM)39% (Oct 1, 2:50 PM)29.62 "Hg (Oct 6, 2:50 PM)
Average52 °F80%30.08 "Hg
* Reported Sep 28 3:20 PM — Oct 13 3:20 PM, Luxembourg, Weather by CustomWeather, © 2015

Note: Actual official high and low records may vary slightly from our data, if they occured in-between our weather recording intervals... More about our weather records


Luxembourg weather history for previous 24 hours

Time TempWeatherWind HumidityBarometerVisibility
3:20 PM
Tue, Oct 13
45 °FLight rain. Partly sunny.3 mph87%29.95 "Hg5 mi
2:50 PM43 °FPartly sunny.No wind87%29.95 "Hg5 mi
2:20 PM43 °FBroken clouds.2 mph87%29.95 "Hg5 mi
1:50 PM45 °FPartly sunny.1 mph76%29.95 "Hg4 mi
1:20 PM45 °FSprinkles. Broken clouds.1 mph76%29.95 "Hg4 mi
12:50 PM45 °FBroken clouds.1 mph76%29.95 "Hg5 mi
12:20 PM43 °FScattered clouds.3 mph81%29.95 "Hg4 mi
11:50 AM43 °FBroken clouds.2 mph81%29.95 "Hg4 mi
11:20 AM43 °FPartly sunny.3 mph76%29.95 "Hg4 mi
10:50 AM41 °FPartly sunny.2 mph81%29.95 "Hg4 mi
10:20 AM39 °FScattered clouds.8 mph81%29.92 "Hg4 mi
9:50 AM37 °FClear.6 mph87%29.95 "Hg4 mi
9:20 AM37 °FPassing clouds.7 mph87%29.92 "Hg4 mi
8:50 AM37 °FPassing clouds.5 mph87%29.92 "Hg4 mi
8:20 AM37 °FFog.5 mph87%29.92 "Hg3 mi
7:50 AM36 °FFog.3 mph93%29.92 "Hg3 mi
7:20 AM34 °FClear.3 mph93%29.92 "Hg4 mi
6:50 AM37 °FClear.5 mph87%29.92 "Hg4 mi
6:20 AM37 °FClear.5 mph87%29.92 "Hg4 mi
5:50 AM36 °FClear.5 mph93%29.92 "Hg4 mi
5:20 AM36 °FClear.1 mph93%29.92 "Hg6 mi
4:50 AM37 °FClear.3 mph87%29.92 "Hg10 mi
4:20 AM37 °FClear.5 mph93%29.95 "Hg10 mi
3:50 AM39 °FChilly.3 mph87%29.95 "HgN/A
3:20 AM39 °FChilly.5 mph87%29.95 "HgN/A
2:50 AM39 °FChilly.3 mph87%29.95 "HgN/A
2:20 AM39 °FClear.5 mph87%29.95 "Hg10 mi
1:50 AM39 °FClear.5 mph93%29.98 "Hg10 mi
1:20 AM39 °FClear.5 mph93%29.98 "Hg10 mi
12:50 AM39 °FClear.3 mph93%29.98 "Hg10 mi
12:20 AM41 °FClear.5 mph87%29.98 "Hg10 mi
11:50 PM
Mon, Oct 12
41 °FClear.5 mph87%29.98 "Hg10 mi
11:20 PM43 °FClear.6 mph87%29.98 "Hg10 mi
10:50 PM43 °FClear.5 mph87%29.98 "Hg10 mi
10:20 PM45 °FClear.6 mph81%29.98 "Hg10 mi
9:50 PM43 °FPassing clouds.5 mph87%29.98 "HgN/A
9:20 PM45 °FClear.6 mph81%30.01 "Hg10 mi
8:50 PM46 °FClear.7 mph76%30.01 "Hg10 mi
8:20 PM46 °FClear.6 mph76%30.01 "Hg10 mi
7:50 PM48 °FSunny.6 mph71%30.01 "Hg10 mi
7:20 PM48 °FPassing clouds.6 mph76%29.98 "HgN/A
6:50 PM48 °FSunny.8 mph71%29.98 "Hg10 mi
6:20 PM50 °FPassing clouds.7 mph67%29.98 "HgN/A
5:50 PM50 °FSunny.8 mph67%29.98 "Hg10 mi
5:20 PM50 °FPassing clouds.8 mph67%29.98 "HgN/A
4:50 PM52 °FSunny.9 mph62%29.98 "Hg10 mi
4:20 PM52 °FPassing clouds.9 mph62%29.98 "HgN/A
Weather by CustomWeather, © 2015

See weather overviewHow to use our weather pages